Weather History for Broome, WE

Change the Weather History Date:

Saturday, December 22, 2012

  Actual Average Record
Temperature  
Mean Temperature 88 °F -  
Max Temperature 93 °F 92 °F - ()
Min Temperature 82 °F 79 °F - ()
Cooling Degree Days 22    
Growing Degree Days 38 (Base 50)    
Moisture  
Dew Point 75 °F    
Average Humidity 66    
Maximum Humidity 79    
Minimum Humidity 41    
Precipitation  
Precipitation 0.01 in 0.21 in - ()
Sea Level Pressure  
Sea Level Pressure 29.69 in    
Wind  
Wind Speed 8 mph ()    
Max Wind Speed 18 mph    
Max Gust Speed -    
Visibility 7.4 miles    
Events Rain , Thunderstorm    
T = Trace of Precipitation, MM = Missing Value Source: Averaged Metar Reports

Daily Weather History Graph

Daily Weather History Graph

Search for Another Location

Airport:

Trip Planner

Search our weather history database for the weather conditions in past years. The results will help you decide how hot, cold, wet, or windy it might be!

Date:

Astronomy

Dec. 22, 2012 Rise Set
Actual Time 5:13 AM AWST 6:25 PM AWST
Civil Twilight 4:49 AM AWST 6:50 PM AWST
Nautical Twilight 4:20 AM AWST 7:18 PM AWST
Astronomical Twilight 3:51 AM AWST 7:48 PM AWST
Moon 1:25 PM AWST (12/22) 12:33 AM AWST (12/22)
Length of Visible Light 14h 00m
Length of Day
13h 12m
Waxing Gibbous, 69% of the Moon is Illuminated
Dec 22
Waxing Gibbous
Dec 28
Full
Jan 5
Last Quarter
Jan 12
New
Jan 19
First Quarter

Hourly Weather History & Observations

Time (AWST) Temp. Heat Index Dew Point Humidity Pressure Visibility Wind Dir Wind Speed Gust Speed Precip Events Conditions
12:00 AM 86 °F - 77 °F 69% 29.70 in - West 6.9 mph - -  
12:00 AM 86.0 °F 96.9 °F 77.0 °F 74% 29.68 in 6.2 mi West 6.9 mph - N/A   Unknown
12:30 AM 86.0 °F 96.9 °F 77.0 °F 74% 29.68 in 6.2 mi West 8.1 mph - N/A   Unknown
1:00 AM 86.0 °F 96.9 °F 77.0 °F 74% 29.68 in 6.2 mi West 8.1 mph - N/A   Unknown
1:30 AM 86.0 °F 96.9 °F 77.0 °F 74% 29.68 in 6.2 mi West 8.1 mph - N/A   Unknown
2:00 AM 86 °F - 78 °F 70% 29.68 in - West 8.1 mph - -  
2:00 AM 86.0 °F 96.9 °F 77.0 °F 74% 29.68 in 6.2 mi West 8.1 mph - N/A   Unknown
2:30 AM 86.0 °F 96.9 °F 77.0 °F 74% 29.68 in 6.2 mi West 8.1 mph - N/A   Scattered Clouds
3:00 AM 86 °F - 77 °F 68% 29.68 in - West 8.1 mph - -  
3:00 AM 86.0 °F 96.9 °F 77.0 °F 74% 29.68 in 6.2 mi West 8.1 mph - N/A   Unknown
3:30 AM 86.0 °F 96.9 °F 77.0 °F 74% 29.68 in 6.2 mi West 8.1 mph - N/A   Unknown
4:00 AM 86.0 °F 96.9 °F 77.0 °F 74% 29.68 in 6.2 mi West 8.1 mph - N/A   Scattered Clouds
4:30 AM 86.0 °F 96.9 °F 77.0 °F 74% 29.68 in 6.2 mi West 6.9 mph - N/A   Scattered Clouds
5:00 AM 86 °F - 77 °F 69% 29.69 in - West 8.1 mph - -  
5:00 AM 86.0 °F 96.9 °F 77.0 °F 74% 29.68 in 6.2 mi West 8.1 mph - N/A   Unknown
5:30 AM 86.0 °F 96.9 °F 77.0 °F 74% 29.68 in 6.2 mi West 6.9 mph - N/A   Mostly Cloudy
6:00 AM 87 °F - 77 °F 65% 29.71 in 19 mi West 8.1 mph - -   Haze
6:00 AM 87.8 °F 99.7 °F 77.0 °F 70% 29.71 in 6.2 mi West 8.1 mph - N/A   Mostly Cloudy
6:30 AM 87.8 °F 99.7 °F 77.0 °F 70% 29.71 in 6.2 mi West 8.1 mph - N/A   Scattered Clouds
7:00 AM 87.8 °F 99.7 °F 77.0 °F 70% 29.71 in 6.2 mi West 8.1 mph - N/A   Mostly Cloudy
7:30 AM 89.6 °F 102.2 °F 77.0 °F 66% 29.71 in 6.2 mi West 8.1 mph - N/A   Mostly Cloudy
8:00 AM 90 °F - 78 °F 59% 29.74 in - West 8.1 mph - -  
8:00 AM 89.6 °F 102.2 °F 77.0 °F 66% 29.74 in 6.2 mi West 8.1 mph - N/A   Mostly Cloudy
8:30 AM 89.6 °F 102.2 °F 77.0 °F 66% 29.74 in 6.2 mi West 8.1 mph - N/A   Mostly Cloudy
9:00 AM 90 °F - 76 °F 57% 29.75 in 19 mi West 9.2 mph - -   Haze
9:00 AM 89.6 °F 102.2 °F 77.0 °F 66% 29.74 in 6.2 mi West 9.2 mph - N/A   Mostly Cloudy
9:30 AM 91.4 °F 105.1 °F 77.0 °F 63% 29.74 in 6.2 mi West 9.2 mph - N/A   Mostly Cloudy
10:00 AM 93.2 °F 107.2 °F 77.0 °F 59% 29.74 in 6.2 mi WNW 9.2 mph - N/A   Mostly Cloudy
10:30 AM 91.4 °F 105.1 °F 77.0 °F 63% 29.71 in 6.2 mi WNW 10.4 mph - N/A   Mostly Cloudy
11:00 AM 92 °F - 77 °F 53% 29.72 in - West 12.7 mph - -  
11:00 AM 93.2 °F 107.2 °F 77.0 °F 59% 29.71 in 6.2 mi West 12.7 mph - N/A Thunderstorm Partly Cloudy
11:22 AM 87.8 °F 95.6 °F 73.4 °F 62% 29.74 in 6.2 mi ENE 16.1 mph - N/A Rain , Thunderstorm Thunderstorms and Rain
11:30 AM 84.2 °F 90.9 °F 73.4 °F 70% 29.74 in 3.1 mi NE 18.4 mph - N/A Rain , Thunderstorm Heavy Thunderstorms and Rain
11:57 AM 84.2 °F 89.6 °F 71.6 °F 66% 29.74 in 4.3 mi NNE 15.0 mph - N/A Rain , Thunderstorm Thunderstorms and Rain
12:00 PM 85 °F - 71 °F 55% 29.75 in 16 mi NNE 12.7 mph - - Rain , Thunderstorm Thunderstorms and Rain
12:00 PM 84.2 °F 89.6 °F 71.6 °F 66% 29.74 in 3.7 mi NNE 12.7 mph - N/A Rain , Thunderstorm Thunderstorms and Rain
12:30 PM 82.4 °F 87.2 °F 71.6 °F 70% 29.71 in 6.2 mi North 9.2 mph - N/A Rain , Thunderstorm Light Rain Showers
1:00 PM 87.8 °F 93.8 °F 71.6 °F 58% 29.68 in 6.2 mi NE 9.2 mph - N/A   Mostly Cloudy
1:30 PM 93.2 °F 96.2 °F 66.2 °F 41% 29.68 in 6.2 mi North 6.9 mph - N/A   Mostly Cloudy
2:00 PM 88 °F - 72 °F 51% 29.70 in - NW 15.0 mph - -  
2:00 PM 87.8 °F 93.8 °F 71.6 °F 58% 29.68 in 6.2 mi NW 15.0 mph - N/A   Mostly Cloudy
2:30 PM 89.6 °F 94.7 °F 69.8 °F 52% 29.68 in 6.2 mi WNW 12.7 mph - N/A   Mostly Cloudy
3:00 PM 89 °F - 72 °F 49% 29.66 in 22 mi NW 12.7 mph - -   Partly Cloudy
3:00 PM 87.8 °F 95.6 °F 73.4 °F 62% 29.65 in 6.2 mi NW 12.7 mph - N/A   Mostly Cloudy
3:30 PM 89.6 °F 96.2 °F 71.6 °F 55% 29.62 in 6.2 mi West 10.4 mph - N/A   Mostly Cloudy
4:00 PM 87.8 °F 95.6 °F 73.4 °F 62% 29.62 in 6.2 mi WNW 11.5 mph - N/A   Mostly Cloudy
4:30 PM 87.8 °F 95.6 °F 73.4 °F 62% 29.65 in - West 10.4 mph - N/A   Clear
5:00 PM 87 °F - 72 °F 53% 29.65 in - NW 10.4 mph - -  
5:00 PM 87.8 °F 93.8 °F 71.6 °F 58% 29.65 in - NW 10.4 mph - N/A   Clear
5:30 PM 86.0 °F 93.4 °F 73.4 °F 66% 29.65 in - NW 8.1 mph - N/A   Clear
6:00 PM 86 °F - 72 °F 55% 29.67 in 19 mi WNW 8.1 mph - -   Partly Cloudy
6:00 PM 86.0 °F 91.8 °F 71.6 °F 62% 29.65 in - WNW 8.1 mph - N/A   Clear
6:30 PM 86.0 °F 93.4 °F 73.4 °F 66% 29.65 in - WNW 6.9 mph - N/A   Clear
7:00 PM 86.0 °F 93.4 °F 73.4 °F 66% 29.65 in - WNW 6.9 mph - N/A   Clear
7:30 PM 86.0 °F 93.4 °F 73.4 °F 66% 29.68 in - WNW 6.9 mph - N/A   Clear
8:00 PM 85 °F - 73 °F 60% 29.68 in - NW 5.8 mph - -  
8:00 PM 86.0 °F 93.4 °F 73.4 °F 66% 29.68 in - NW 5.8 mph - N/A   Clear
8:30 PM 86.0 °F 95.1 °F 75.2 °F 70% 29.68 in - WNW 5.8 mph - N/A   Clear
9:00 PM 85 °F - 75 °F 66% 29.70 in 19 mi WNW 4.6 mph - -   Partly Cloudy
9:00 PM 86.0 °F 95.1 °F 75.2 °F 70% 29.68 in - WNW 4.6 mph - N/A   Clear
9:30 PM 86.0 °F 95.1 °F 75.2 °F 70% 29.71 in 6.2 mi WNW 5.8 mph - N/A   Unknown
10:00 PM 86.0 °F 96.9 °F 77.0 °F 74% 29.71 in 6.2 mi West 6.9 mph - N/A   Unknown
10:30 PM 86.0 °F 96.9 °F 77.0 °F 74% 29.68 in 6.2 mi West 6.9 mph - N/A   Unknown
11:00 PM 86 °F - 78 °F 71% 29.70 in - West 8.1 mph - -  
11:00 PM 86.0 °F 99.3 °F 78.8 °F 79% 29.68 in 6.2 mi West 8.1 mph - N/A   Unknown
11:30 PM 86.0 °F 99.3 °F 78.8 °F 79% 29.68 in 6.2 mi West 8.1 mph - N/A   Scattered Clouds